Regional Weather Roundup
Issued by NWS

Home | Current Version | Previous Version | Graphics & Text | Print | Product List | Glossary On
Versions: 1 2 3 4 5 6 7 8 9 10 11 12 13 14 15 16 17 18 19 20 21 22 23 24 25 26 27 28 29 30 31 32 33 34 35 36 37 38 39 40 41 42 43 44 45 46 47 48 49 50
000
ASUS45 KPSR 281010
RWRAZ

ARIZONA REGIONAL HOURLY WEATHER ROUNDUP
NATIONAL WEATHER SERVICE PHOENIX AZ
300 AM MST SAT FEB 28 2015

NOTE: FAIR INDICATES FEW OR NO CLOUDS BELOW 12,000 FEET WITH NO
SIGNIFICANT WEATHER AND/OR OBSTRUCTIONS TO VISIBILITY.

AZZ001>003-036-281100-
NORTHWEST ARIZONA

CITY           SKY/WX    TMP DP  RH WIND       PRES   REMARKS
BULLHEAD CITY  MOCLDY    63  36  36 SE14      29.62R
KINGMAN        CLEAR     49  34  56 SW18      29.64R
$$

AZZ004>008-015-016-018-281100-
NORTH CENTRAL ARIZONA

CITY           SKY/WX    TMP DP  RH WIND       PRES   REMARKS
GRAND CANYON   MOCLDY    35  29  78 S12       29.67F WCI  27
PRESCOTT       MOCLDY    45  35  68 S10       29.73S
FLAGSTAFF      CLOUDY    36  31  82 SW23G33   29.70F WCI  24
PAYSON         CLOUDY    45  36  70 S8        29.78S
PAGE           HVY RAIN  38  33  82 CALM      29.69S
$$

AZZ009>014-017-281100-
NORTHEAST ARIZONA

CITY           SKY/WX    TMP DP  RH WIND       PRES   REMARKS
WINSLOW        LGT RAIN  39  35  86 SE8       29.72S WCI  33
SAINT JOHNS    MOCLDY    45  29  53 SW14      29.74R
WINDOW ROCK    CLOUDY    32  29  88 CALM      29.75F
SHOW LOW       CLOUDY    39  28  65 SW14G23   29.78S WCI  31
$$

AZZ023-281100-
GREATER PHOENIX AREA

CITY           SKY/WX    TMP DP  RH WIND       PRES   REMARKS
PHOENIX        MOCLDY    62  38  40 NE3       29.71R
BUCKEYE        MOCLDY    57  48  72 S12       29.72F
LUKE AFB       PTCLDY    57  45  62 SW6       29.71R
DEER VALLEY    PTCLDY    59  42  53 SW8       29.72R
SCOTTSDALE     PTCLDY    58  40  51 CALM      29.74R
MESA-GATEWAY   MOCLDY    59  41  51 SW9       29.76R
$$

AZZ027-028-281100-
SOUTHWEST MARICOPA COUNTY AND PINAL COUNTY

CITY           SKY/WX    TMP DP  RH WIND       PRES   REMARKS
CASA GRANDE    PTCLDY    57  37  47 S6        29.74S
GILA BEND      FAIR      57  45  63 SW3       29.73R
$$

AZZ503-504-507>509-281100-
SOUTHEAST ARIZONA

CITY           SKY/WX    TMP DP  RH WIND       PRES   REMARKS
TUCSON         CLEAR     59  38  45 S17G23    29.80S
DAVIS-MONTHAN  CLEAR     57  38  49 SW6       29.79S
NOGALES        CLEAR     49  39  68 SE6       29.86R
SIERRA VISTA   CLEAR     50  35  56 SE8G17    29.86R
DOUGLAS        CLEAR     50  29  44 S16       29.87S
SAFFORD        CLEAR     48  33  56 E6        29.76S
$$

AZZ020-021-025-026-031-281100-
SOUTHWEST ARIZONA

CITY           SKY/WX    TMP DP  RH WIND       PRES   REMARKS
YUMA           CLEAR     57  43  59 SW3       29.72R
$$

CAZ031-033-041-043-047-048-061-281100-
SOUTHERN CALIFORNIA

CITY           SKY/WX    TMP DP  RH WIND       PRES   REMARKS
DOWNTOWN L.A.  CLOUDY    57  50  77 CALM      29.75S
L.A. AIRPORT   MOCLDY    56  47  71 W20       29.76R
SAN DIEGO      MOCLDY    60  50  69 W14G20    29.84S
BURBANK        CLOUDY    56  49  77 S3        29.75R
ONTARIO        MOCLDY    53  48  83 W3        29.77S
RIVERSIDE      MOCLDY    54  49  83 W7        29.78S
PALM SPRINGS   CLEAR     63  39  41 E15       29.66S
EL CENTRO NAS  CLEAR     62  42  47 SW15      29.71S
IMPERIAL       CLEAR     63  44  50 SW24G31   29.68F
BLYTHE         PTCLDY    60  43  53 CALM      29.67R
NEEDLES        PTCLDY    62  32  32 SW8       29.63R
$$

NVZ020-UTZ003-281100-
SOUTHERN NEVADA-UTAH

CITY           SKY/WX    TMP DP  RH WIND       PRES   REMARKS
LAS VEGAS      PTCLDY    54  36  50 S15       29.53R
SALT LAKE CITY PTCLDY    32  21  64 S9        29.68S WCI  24
$$

NMZ009-TXZ055-281100-
NEW MEXICO-WEST TEXAS

CITY           SKY/WX    TMP DP  RH WIND       PRES   REMARKS
ALBUQUERQUE    LGT SNOW  20  18  92 N8        29.88F FOG     WCI  10
EL PASO        PTCLDY    28  20  71 CALM      29.96S
$$


........................KEY........................
SKY/WX - SKY CONDITION/WEATHER
TMP    - TEMPERATURE IN FAHRENHEIT
DP     - DEW POINT IN FAHRENHEIT
RH     - RELATIVE HUMIDITY IN PERCENT
WIND   - DIRECTION AND SPEED IN MILES PER HOUR (MPH)
VRB    - VARIABLE WIND DIRECTION
PRES   - MEAN SEA LEVEL PRESSURE IN INCHES OF MERCURY
         F - FALLING PRESSURE   R - RISING PRESSURE
         S - STEADY PRESSURE
VSB    - VISIBILITY IN MILES
HX     - HEAT INDEX IN FAHRENHEIT
WCI    - WIND CHILL INDEX IN FAHRENHEIT
TC     - TEMPERATURE IN CELSIUS WHICH IS ALSO KNOWN AS
         TEMPERATURE IN CENTIGRADE
AFB    - AIR FORCE BASE
         LUKE AFB IS LUKE AIR FORCE BASE
         DAVIS-MONTHAN IS DAVIS-MONTHAN AIR FORCE BASE
NAS    - NAVAL AIR STATION
         EL CENTRO NAS IS EL CENTRO NAVAL AIR STATION
N/A    - NOT AVAILABLE


USA.gov is the U.S. government's official web portal to all federal, state and local government web resources and services.